Location: Bourg-d�Oueil
(42.8588°N, 0.4991°E)
Time: 03:48:14
(UTC+00:00)

FengYun 1-2 T - Pass Details

Date: 02 February 2022
Orbit: 846 x 881 km, 98.7° (Epoch: 21 May)

Event Time Altitude Azimuth Distance (km) Brightness Sun altitude
Rises 18:44:56 0° 218° (SW) 3,410 8.1 -17.2°
Reaches altitude 10° 18:48:47 10° 246° (WSW) 2,488 7.8 -17.9°
Maximum altitude 18:51:12 13° 272° (W) 2,295 7.6 -18.4°
Drops below altitude 10° 18:53:38 10° 298° (WNW) 2,506 7.5 -18.8°
Sets 18:57:35 0° 326° (NW) 3,458 7.8 -19.5°
